Regional Weather Roundup
Issued by NWS

Home | Current Version | Previous Version | Graphics & Text | Print | Product List | Glossary On
Versions: 1 2 3 4 5 6 7 8 9 10 11 12 13 14 15 16 17 18 19 20 21 22 23 24 25 26 27 28 29 30 31 32 33 34 35 36 37 38 39 40 41 42 43 44 45 46 47 48 49 50
000
ASUS43 KLOT 260100
RWRIL

ILLINOIS REGIONAL WEATHER ROUNDUP
NATIONAL WEATHER SERVICE CHICAGO/ROMEOVILLE IL
700 PM CST THU DEC 25 2014

NOTE: "FAIR" INDICATES FEW OR NO CLOUDS BELOW 12,000 FEET WITH NO
SIGNIFICANT WEATHER AND/OR OBSTRUCTIONS TO VISIBILITY.

* THESE STATIONS ARE NOT UNDER NWS QUALITY CONTROL. THEY ALSO MAY NOT
  REPORT WEATHER SUCH AS PRECIPITATION OR FOG.

ILZ001-002-007-009-015-016-024-260200-
NORTHWEST ILLINOIS

CITY           SKY/WX    TMP DP  RH WIND       PRES   REMARKS
MOLINE         PTCLDY    42  32  67 SE10      29.89R
STERLING*      CLEAR     39  32  75 S6        29.92S WCI  35
$$

ILZ003-004-008-010-011-017-018-260200-
NORTH CENTRAL ILLINOIS

CITY           SKY/WX    TMP DP  RH WIND       PRES   REMARKS
ROCKFORD       CLOUDY    40  33  76 S15       29.94S
$$

ILZ005-006-012>014-019>023-260200-
NORTHEAST ILLINOIS

CITY           SKY/WX    TMP DP  RH WIND       PRES   REMARKS
CHICAGO-OHARE  CLOUDY    40  34  79 S17       29.99R
CHICAGO-MIDWAY CLOUDY    42  35  76 S15G21    30.01S
AURORA         CLOUDY    40  34  79 S14       29.98S
WAUKEGAN       CLOUDY    40  33  76 S15       29.96F
DUPAGE AIRPORT CLOUDY    40  34  79 S12       29.98S
WHEELING       CLOUDY    41  34  76 S14       30.01R
NORTHERLY ISL    N/A     41  34  76 SW14        N/A
$$

LMZ740>746-260200-
SOUTHERN LAKE MICHIGAN

STATION/POSITION SKY/WX   TEMP    WIND        PRES    VSBY  WAVE
                          AIR SEA DIR/SP/G                  HT/PER
                          (F)     (DEG/KT/KT) (MB)    (MI)  (FT/S)
WAUKEGAN HARBOR            40                   N/A
HARRISON CRIB              40     180/ 21/ 23   N/A
BURNHAM HARBOR             41     190/ 15       N/A
CALUMET HARBOR             40     170/ 10/ 13 1015.3S
MICHIGAN CITY              39     150/ 12/ 16   N/A
$$

ILZ025>027-034>036-040-047-049-050-058-095>099-260200-
WEST-CENTRAL ILLINOIS

CITY           SKY/WX    TMP DP  RH WIND       PRES   REMARKS
QUINCY         CLEAR     42  30  62 SE10      29.87S
MACOMB*        PTCLDY    39  34  81 SE14      29.92S WCI  31
$$

ILZ028>032-037-038-041>044-048-051>054-059>061-260200-
CENTRAL ILLINOIS

CITY           SKY/WX    TMP DP  RH WIND       PRES   REMARKS
DECATUR        CLEAR     41  34  76 S14       30.02S
PEORIA         PTCLDY    44  34  67 S14G23    29.95S
SPRINGFIELD    PTCLDY    44  34  67 S20G28    29.98R
TAYLORVILLE    NOT AVBL
$$

ILZ033-039-045-046-055>057-062-063-260200-
EAST-CENTRAL ILLINOIS

CITY           SKY/WX    TMP DP  RH WIND       PRES   REMARKS
CHAMPAIGN      CLEAR     39  33  79 S13       30.03S WCI  31
MATTOON        CLEAR     40  34  79 S12       30.05R
$$

ILZ079-100>102-260200-
SOUTHWEST ILLINOIS

CITY           SKY/WX    TMP DP  RH WIND       PRES   REMARKS
ALTON          CLEAR     45  30  57 S14G21    30.00R
BELLEVILLE     CLOUDY    43  39  83 S14G24    30.02R
CAHOKIA*       PTCLDY    45  36  70 S14       30.00S
$$

ILZ064>066-069>071-074>076-080>082-084>086-088>090-092>094-260200-
SOUTH-CENTRAL ILLINOIS

CITY           SKY/WX    TMP DP  RH WIND       PRES   REMARKS
CARBONDALE     PTCLDY    41  33  73 SE9       30.08S
MT. VERNON     CLEAR     41  30  65 S7        30.08S
$$

ILZ067-068-072-073-078-083-087-091-260200-
SOUTHEAST ILLINOIS

CITY           SKY/WX    TMP DP  RH WIND       PRES   REMARKS
LAWRENCEVILLE  CLEAR     38  34  85 SE10      30.11S WCI  31
$$

ABBREVIATIONS USED IN REMARKS
   TC - TEMPERATURE IN CELSIUS
  WCI - WIND CHILL INDEX
   HX - HEAT INDEX
  VSB - VISIBILITY
$$



USA.gov is the U.S. government's official web portal to all federal, state and local government web resources and services.